Location: Isola Pescaroli
(45.0500°N, 10.1667°E)
Time: 00:09:23
(UTC+00:00)

SL-4 R/B - Pass Details

Date: 23 June 2021
Orbit: 428 x 662 km, 51.6° (Epoch: 29 July)

Event Time Altitude Azimuth Distance (km) Brightness Sun altitude
Rises 21:32:17 0° 256° (WSW) 2,779 5.8 -17.1°
Reaches altitude 10° 21:34:40 10° 261° (W) 1,841 4.9 -17.3°
Maximum altitude 21:38:45 51° 338° (NNW) 670 2.8 -17.6°
Drops below altitude 10° 21:42:31 10° 56° (NE) 1,704 4.6 -17.9°
Sets 21:44:40 0° 61° (ENE) 2,550 5.5 -18.0°
